Location: Observatoire de Paris
(48.8363°N, 2.3365°E)
Time: 17:40:52
(UTC+01:00)

METEOR M2 - Pass Details

Date: 22 September 2021
Orbit: 820 x 826 km, 98.5° (Epoch: 28 October)

Event Time Altitude Azimuth Distance (km) Brightness Sun altitude
Rises 21:14:05 0° 225° (SW) 3,342 ? -23.8°
Reaches altitude 10° 21:18:30 10° 260° (W) 2,418 ? -24.4°
Maximum altitude 21:19:59 11° 276° (W) 2,343 ? -24.6°
Drops below altitude 10° 21:21:29 10° 292° (WNW) 2,423 ? -24.8°
Sets 21:25:57 0° 327° (NNW) 3,365 ? -25.4°
